Weather History for Austin, MN

Change the Weather History Date:

Wednesday, October 10, 2012

  Actual Average Record
Temperature  
Mean Temperature 42 °F -  
Max Temperature 51 °F 61 °F 78 °F (2010)
Min Temperature 32 °F 39 °F 26 °F (2000)
Degree Days  
Heating Degree Days 24    
Moisture  
Dew Point 25 °F    
Average Humidity 53    
Maximum Humidity 75    
Minimum Humidity 33    
Precipitation  
Precipitation 0.00 in - - ()
Sea Level Pressure  
Sea Level Pressure 30.05 in    
Wind  
Wind Speed 10 mph (WSW)    
Max Wind Speed 15 mph    
Max Gust Speed 22 mph    
Visibility 10 miles    
Events      
Averages and records for this station are not official NWS values.
T = Trace of Precipitation, MM = Missing Value Source: NWS Daily Summary

Daily Weather History Graph

Daily Weather History Graph

Search for Another Location

Airport:

Trip Planner

Search our weather history database for the weather conditions in past years. The results will help you decide how hot, cold, wet, or windy it might be!

Date:

Astronomy

Oct. 10, 2012 Rise Set
Actual Time 7:20 AM CDT 6:35 PM CDT
Civil Twilight 6:51 AM CDT 7:04 PM CDT
Nautical Twilight 6:18 AM CDT 7:37 PM CDT
Astronomical Twilight 5:45 AM CDT 8:11 PM CDT
Moon 1:48 AM CDT (10/10) 3:47 PM CDT (10/10)
Length of Visible Light 12h 12m
Length of Day
11h 15m
Waning Crescent, 27% of the Moon is Illuminated
Oct 10
Waning Crescent
Oct 15
New
Oct 21
First Quarter
Oct 29
Full
Nov 6
Last Quarter

Hourly Weather History & Observations

Time (CDT) Temp. Windchill Dew Point Humidity Pressure Visibility Wind Dir Wind Speed Gust Speed Precip Events Conditions
12:15 AM 35.6 °F 26.6 °F 24.8 °F 65% 29.99 in 10.0 mi WNW 13.8 mph 19.6 mph N/A   Clear
12:35 AM 35.6 °F 27.1 °F 24.8 °F 65% 30.00 in 10.0 mi WNW 12.7 mph 17.3 mph N/A   Clear
12:55 AM 35.6 °F 27.5 °F 23.0 °F 60% 30.00 in 10.0 mi WNW 11.5 mph - N/A   Clear
1:15 AM 35.6 °F 27.5 °F 23.0 °F 60% 30.00 in 10.0 mi WNW 11.5 mph - N/A   Clear
1:35 AM 33.8 °F 26.4 °F 23.0 °F 65% 30.00 in 10.0 mi WNW 9.2 mph - N/A   Clear
1:54 AM 33.8 °F 26.4 °F 23.0 °F 65% 30.01 in 10.0 mi WNW 9.2 mph - N/A   Clear
2:15 AM 33.8 °F 25.8 °F 23.0 °F 65% 30.01 in 10.0 mi WNW 10.4 mph - N/A   Clear
2:35 AM 33.8 °F 25.8 °F 23.0 °F 65% 30.01 in 10.0 mi WNW 10.4 mph - N/A   Clear
2:54 AM 33.8 °F 26.4 °F 23.0 °F 65% 30.01 in 10.0 mi WNW 9.2 mph 17.3 mph N/A   Clear
3:15 AM 33.8 °F 26.4 °F 23.0 °F 65% 30.01 in 10.0 mi WNW 9.2 mph - N/A   Clear
3:35 AM 33.8 °F 27.7 °F 24.8 °F 70% 30.01 in 10.0 mi WNW 6.9 mph - N/A   Scattered Clouds
3:54 AM 33.8 °F 28.6 °F 24.8 °F 70% 30.02 in 10.0 mi WNW 5.8 mph - N/A   Scattered Clouds
4:15 AM 33.8 °F 28.6 °F 24.8 °F 70% 30.02 in 10.0 mi WNW 5.8 mph - N/A   Clear
4:35 AM 32.0 °F 27.5 °F 24.8 °F 75% 30.02 in 10.0 mi WNW 4.6 mph - N/A   Clear
4:54 AM 32.0 °F 27.5 °F 24.8 °F 75% 30.03 in 10.0 mi West 4.6 mph - N/A   Mostly Cloudy
5:15 AM 33.8 °F 28.6 °F 24.8 °F 70% 30.04 in 10.0 mi West 5.8 mph - N/A   Overcast
5:35 AM 33.8 °F 28.6 °F 24.8 °F 70% 30.05 in 10.0 mi West 5.8 mph - N/A   Overcast
5:54 AM 33.8 °F 28.6 °F 24.8 °F 70% 30.05 in 10.0 mi West 5.8 mph - N/A   Overcast
6:15 AM 33.8 °F - 24.8 °F 70% 30.06 in 10.0 mi Calm Calm - N/A   Overcast
6:35 AM 33.8 °F 27.7 °F 24.8 °F 70% 30.06 in 10.0 mi West 6.9 mph - N/A   Overcast
6:55 AM 33.8 °F 28.6 °F 24.8 °F 70% 30.07 in 10.0 mi West 5.8 mph - N/A   Overcast
7:15 AM 35.6 °F 30.7 °F 26.6 °F 70% 30.07 in 10.0 mi West 5.8 mph - N/A   Overcast
7:34 AM 33.8 °F 29.6 °F 26.6 °F 75% 30.08 in 10.0 mi West 4.6 mph - N/A   Mostly Cloudy
7:55 AM 35.6 °F 29.9 °F 26.6 °F 70% 30.09 in 10.0 mi West 6.9 mph - N/A   Mostly Cloudy
8:14 AM 35.6 °F 30.7 °F 26.6 °F 70% 30.10 in 10.0 mi West 5.8 mph - N/A   Scattered Clouds
8:35 AM 35.6 °F - 26.6 °F 70% 30.10 in 10.0 mi North - - N/A   Clear
8:55 AM 37.4 °F 31.4 °F 26.6 °F 65% 30.11 in 10.0 mi SSE 8.1 mph - N/A   Clear
9:15 AM 37.4 °F 30.3 °F 26.6 °F 65% 30.12 in 10.0 mi WNW 10.4 mph - N/A   Clear
9:35 AM 39.2 °F 33.0 °F 26.6 °F 61% 30.12 in 10.0 mi WNW 9.2 mph - N/A   Clear
9:55 AM 39.2 °F 32.5 °F 28.4 °F 65% 30.12 in 10.0 mi WNW 10.4 mph - N/A   Clear
10:15 AM 42.8 °F 36.2 °F 28.4 °F 57% 30.12 in 10.0 mi WNW 12.7 mph 16.1 mph N/A   Clear
10:35 AM 42.8 °F 35.4 °F 26.6 °F 53% 30.12 in 10.0 mi NW 15.0 mph 20.7 mph N/A   Clear
10:55 AM 42.8 °F 36.2 °F 26.6 °F 53% 30.13 in 10.0 mi WNW 12.7 mph - N/A   Clear
11:12 AM 44.6 °F 39.7 °F 26.6 °F 49% 30.13 in 10.0 mi WNW 9.2 mph - N/A   Clear
11:55 AM 46.4 °F 40.4 °F 21.2 °F 37% 30.13 in 10.0 mi WNW 13.8 mph - N/A   Clear
12:15 PM 46.4 °F 41.1 °F 21.2 °F 37% 30.13 in 10.0 mi West 11.5 mph 18.4 mph N/A   Clear
12:35 PM 48.2 °F - 23.0 °F 37% 30.13 in 10.0 mi West 12.7 mph 21.9 mph N/A   Scattered Clouds
12:55 PM 46.4 °F 40.4 °F 24.8 °F 43% 30.12 in 10.0 mi West 13.8 mph 21.9 mph N/A   Scattered Clouds
1:15 PM 50.0 °F - 24.8 °F 37% 30.12 in 10.0 mi West 13.8 mph 19.6 mph N/A   Scattered Clouds
1:35 PM 48.2 °F - 24.8 °F 40% 30.11 in 10.0 mi WNW 12.7 mph 21.9 mph N/A   Scattered Clouds
1:55 PM 48.2 °F - 24.8 °F 40% 30.11 in 10.0 mi West 11.5 mph 19.6 mph N/A   Scattered Clouds
2:15 PM 48.2 °F - 23.0 °F 37% 30.09 in 10.0 mi West 12.7 mph 18.4 mph N/A   Scattered Clouds
2:35 PM 50.0 °F - 23.0 °F 35% 30.09 in 10.0 mi West 11.5 mph 20.7 mph N/A   Mostly Cloudy
2:55 PM 48.2 °F - 23.0 °F 37% 30.09 in 10.0 mi West 12.7 mph 16.1 mph N/A   Scattered Clouds
3:15 PM 51.8 °F - 23.0 °F 33% 30.08 in 10.0 mi West 6.9 mph 11.5 mph N/A   Scattered Clouds
3:35 PM 51.8 °F - 24.8 °F 35% 30.07 in 10.0 mi SW 10.4 mph 18.4 mph N/A   Scattered Clouds
3:55 PM 51.8 °F - 24.8 °F 35% 30.06 in 10.0 mi West 12.7 mph 18.4 mph N/A   Scattered Clouds
4:15 PM 51.8 °F - 24.8 °F 35% 30.06 in 10.0 mi West 10.4 mph 19.6 mph N/A   Scattered Clouds
4:35 PM 51.8 °F - 24.8 °F 35% 30.05 in 10.0 mi WSW 9.2 mph - N/A   Scattered Clouds
4:55 PM 51.8 °F - 24.8 °F 35% 30.05 in 10.0 mi WSW 11.5 mph 17.3 mph N/A   Scattered Clouds
5:15 PM 51.8 °F - 24.8 °F 35% 30.04 in 10.0 mi SW 6.9 mph - N/A   Clear
5:35 PM 51.8 °F - 23.0 °F 33% 30.04 in 10.0 mi WSW 10.4 mph 16.1 mph N/A   Clear
5:55 PM 51.8 °F - 23.0 °F 33% 30.04 in 10.0 mi WSW 8.1 mph - N/A   Clear
6:15 PM 51.8 °F - 23.0 °F 33% 30.03 in 10.0 mi SW 6.9 mph - N/A   Clear
6:35 PM 48.2 °F - 24.8 °F 40% 30.03 in 10.0 mi SSW 5.8 mph - N/A   Clear
6:55 PM 48.2 °F - 24.8 °F 40% 30.03 in 10.0 mi South 4.6 mph - N/A   Clear
7:14 PM 46.4 °F 42.9 °F 26.6 °F 46% 30.03 in 10.0 mi South 6.9 mph - N/A   Scattered Clouds
7:35 PM 44.6 °F 40.7 °F 26.6 °F 49% 30.02 in 10.0 mi South 6.9 mph - N/A   Mostly Cloudy
7:55 PM 44.6 °F 40.2 °F 26.6 °F 49% 30.02 in 10.0 mi South 8.1 mph - N/A   Scattered Clouds
8:14 PM 44.6 °F 40.7 °F 26.6 °F 49% 30.02 in 10.0 mi South 6.9 mph - N/A   Clear
8:35 PM 44.6 °F 40.7 °F 26.6 °F 49% 30.01 in 10.0 mi South 6.9 mph - N/A   Clear
8:55 PM 44.6 °F 41.4 °F 26.6 °F 49% 30.01 in 10.0 mi South 5.8 mph - N/A   Clear
9:15 PM 44.6 °F 40.2 °F 26.6 °F 49% 30.00 in 10.0 mi South 8.1 mph - N/A   Clear
9:35 PM 44.6 °F 39.7 °F 26.6 °F 49% 29.99 in 10.0 mi South 9.2 mph - N/A   Clear
9:55 PM 44.6 °F 39.7 °F 26.6 °F 49% 29.99 in 10.0 mi South 9.2 mph - N/A   Clear
10:15 PM 42.8 °F 37.0 °F 26.6 °F 53% 29.98 in 10.0 mi South 10.4 mph - N/A   Clear
10:35 PM 42.8 °F 38.0 °F 26.6 °F 53% 29.98 in 10.0 mi South 8.1 mph - N/A   Scattered Clouds
10:53 PM 42.8 °F 38.6 °F 26.6 °F 53% 29.98 in 10.0 mi South 6.9 mph - N/A   Clear
11:11 PM 42.8 °F - 24.8 °F 49% 29.97 in 10.0 mi Calm Calm - N/A   Clear
11:35 PM 42.8 °F 36.6 °F 24.8 °F 49% 29.96 in 10.0 mi South 11.5 mph - N/A   Clear
11:55 PM 42.8 °F 36.6 °F 24.8 °F 49% 29.95 in 10.0 mi South 11.5 mph - N/A   Clear